Time,TemperatureF,DewpointF,PressureIn,WindDirection,WindDirectionDegrees,WindSpeedMPH,WindSpeedGustMPH,Humidity,HourlyPrecipIn,Conditions,Clouds,dailyrainin,SoftwareType,DateUTC
2013-08-17 00:01:00,53.7,49.0,30.17,SSW,203,0.0,0.0,84,0.00,,,0.00,WUHU216HW,2013-08-17 05:01:00,
2013-08-17 00:06:00,53.4,49.0,30.17,SSW,203,0.0,0.0,85,0.00,,,0.00,WUHU216HW,2013-08-17 05:06:00,
2013-08-17 00:11:00,53.4,49.0,30.18,SSW,203,0.0,0.0,85,0.00,,,0.00,WUHU216HW,2013-08-17 05:11:00,
2013-08-17 00:16:00,53.4,49.0,30.18,SSW,203,0.0,0.0,85,0.00,,,0.00,WUHU216HW,2013-08-17 05:16:00,
2013-08-17 00:21:00,53.7,49.3,30.18,SSW,203,0.0,0.0,85,0.00,,,0.00,WUHU216HW,2013-08-17 05:21:00,
2013-08-17 00:26:00,53.4,49.0,30.18,SSW,203,0.0,0.0,85,0.00,,,0.00,WUHU216HW,2013-08-17 05:26:00,
2013-08-17 00:31:00,53.2,48.8,30.18,SSW,203,0.0,0.0,85,0.00,,,0.00,WUHU216HW,2013-08-17 05:31:00,
2013-08-17 00:36:00,52.8,48.4,30.18,SSW,203,0.0,0.0,85,0.00,,,0.00,WUHU216HW,2013-08-17 05:36:00,
2013-08-17 00:41:00,52.8,48.4,30.18,SSW,203,0.0,0.0,85,0.00,,,0.00,WUHU216HW,2013-08-17 05:41:00,
2013-08-17 00:46:00,52.7,48.5,30.18,SSW,203,0.0,0.0,86,0.00,,,0.00,WUHU216HW,2013-08-17 05:46:00,
2013-08-17 00:51:00,52.8,48.7,30.17,SSW,203,0.0,0.0,86,0.00,,,0.00,WUHU216HW,2013-08-17 05:51:00,
2013-08-17 00:56:00,52.8,48.7,30.17,SSW,203,0.0,0.0,86,0.00,,,0.00,WUHU216HW,2013-08-17 05:56:00,
2013-08-17 01:01:00,52.8,48.7,30.18,SSW,203,0.0,0.0,86,0.00,,,0.00,WUHU216HW,2013-08-17 06:01:00,
2013-08-17 01:06:00,52.8,48.7,30.17,SSW,203,0.0,0.0,86,0.00,,,0.00,WUHU216HW,2013-08-17 06:06:00,
2013-08-17 01:11:00,53.2,49.1,30.17,SSW,203,0.0,0.0,86,0.00,,,0.00,WUHU216HW,2013-08-17 06:11:00,
2013-08-17 01:16:00,53.2,49.1,30.18,SSW,203,0.0,0.0,86,0.00,,,0.00,WUHU216HW,2013-08-17 06:16:00,
2013-08-17 01:21:00,52.8,48.7,30.18,SSW,203,0.0,0.0,86,0.00,,,0.00,WUHU216HW,2013-08-17 06:21:00,
2013-08-17 01:26:00,52.3,48.2,30.18,SSW,203,0.0,0.0,86,0.00,,,0.00,WUHU216HW,2013-08-17 06:26:00,
2013-08-17 01:31:00,52.3,48.2,30.18,SSW,203,0.0,0.0,86,0.00,,,0.00,WUHU216HW,2013-08-17 06:31:00,
2013-08-17 01:36:00,52.7,48.5,30.17,SSW,203,0.0,0.0,86,0.00,,,0.00,WUHU216HW,2013-08-17 06:36:00,
2013-08-17 01:41:00,52.1,48.0,30.18,SSW,203,0.0,0.0,86,0.00,,,0.00,WUHU216HW,2013-08-17 06:41:00,
2013-08-17 01:46:00,52.3,48.5,30.17,SSW,203,0.0,0.0,87,0.00,,,0.00,WUHU216HW,2013-08-17 06:46:00,
2013-08-17 01:51:00,52.5,48.4,30.18,SSW,203,0.0,0.0,86,0.00,,,0.00,WUHU216HW,2013-08-17 06:51:00,
2013-08-17 01:56:00,53.0,49.2,30.17,SSW,203,0.0,0.0,87,0.00,,,0.00,WUHU216HW,2013-08-17 06:56:00,
2013-08-17 02:01:00,53.2,49.4,30.17,SSW,203,0.0,0.0,87,0.00,,,0.00,WUHU216HW,2013-08-17 07:01:00,
2013-08-17 02:06:00,52.8,49.0,30.17,SSW,203,0.0,0.0,87,0.00,,,0.00,WUHU216HW,2013-08-17 07:06:00,
2013-08-17 02:11:00,53.2,49.4,30.17,SSW,203,0.0,0.0,87,0.00,,,0.00,WUHU216HW,2013-08-17 07:11:00,
2013-08-17 02:16:00,53.4,49.6,30.17,SSW,203,0.0,0.0,87,0.00,,,0.00,WUHU216HW,2013-08-17 07:16:00,
2013-08-17 02:21:00,53.4,49.6,30.17,SSW,203,0.0,0.0,87,0.00,,,0.00,WUHU216HW,2013-08-17 07:21:00,
2013-08-17 02:26:00,53.4,49.6,30.17,SSW,203,0.0,0.0,87,0.00,,,0.00,WUHU216HW,2013-08-17 07:26:00,
2013-08-17 02:31:00,53.4,49.6,30.17,SSW,203,0.0,0.0,87,0.00,,,0.00,WUHU216HW,2013-08-17 07:31:00,
2013-08-17 02:36:00,53.4,49.6,30.17,SSW,203,0.0,0.0,87,0.00,,,0.00,WUHU216HW,2013-08-17 07:36:00,
2013-08-17 02:41:00,53.2,49.4,30.17,SSW,203,0.0,0.0,87,0.00,,,0.00,WUHU216HW,2013-08-17 07:41:00,
2013-08-17 02:46:00,53.2,49.7,30.17,SSW,203,0.0,0.0,88,0.00,,,0.00,WUHU216HW,2013-08-17 07:46:00,
2013-08-17 02:51:00,53.0,49.5,30.17,SSW,203,0.0,0.0,88,0.00,,,0.00,WUHU216HW,2013-08-17 07:51:00,
2013-08-17 02:56:00,53.2,49.7,30.17,SSW,203,0.0,0.0,88,0.00,,,0.00,WUHU216HW,2013-08-17 07:56:00,
2013-08-17 03:01:00,53.2,49.7,30.17,SSW,203,0.0,0.0,88,0.00,,,0.00,WUHU216HW,2013-08-17 08:01:00,
2013-08-17 03:06:00,53.2,49.7,30.17,SSW,203,0.0,0.0,88,0.00,,,0.00,WUHU216HW,2013-08-17 08:06:00,
2013-08-17 03:11:00,52.8,49.3,30.17,SSW,203,0.0,0.0,88,0.00,,,0.00,WUHU216HW,2013-08-17 08:11:00,
2013-08-17 03:16:00,52.8,49.3,30.17,SSW,203,0.0,0.0,88,0.00,,,0.00,WUHU216HW,2013-08-17 08:16:00,
2013-08-17 03:21:00,53.2,49.7,30.17,SSW,203,0.0,0.0,88,0.00,,,0.00,WUHU216HW,2013-08-17 08:21:00,
2013-08-17 03:26:00,53.2,49.7,30.18,SSW,203,0.0,0.0,88,0.00,,,0.00,WUHU216HW,2013-08-17 08:26:00,
2013-08-17 03:31:00,53.2,49.7,30.18,SSW,203,0.0,0.0,88,0.00,,,0.00,WUHU216HW,2013-08-17 08:31:00,
2013-08-17 03:36:00,53.0,49.5,30.18,SSW,203,0.0,0.0,88,0.00,,,0.00,WUHU216HW,2013-08-17 08:36:00,
2013-08-17 03:41:00,52.8,49.3,30.18,SSW,203,0.0,0.0,88,0.00,,,0.00,WUHU216HW,2013-08-17 08:41:00,
2013-08-17 03:46:00,52.8,49.3,30.18,SSW,203,0.0,0.0,88,0.00,,,0.00,WUHU216HW,2013-08-17 08:46:00,
2013-08-17 03:51:00,52.7,49.2,30.18,SSW,203,0.0,0.0,88,0.00,,,0.00,WUHU216HW,2013-08-17 08:51:00,
2013-08-17 03:56:00,52.8,49.6,30.18,SSW,203,0.0,0.0,89,0.00,,,0.00,WUHU216HW,2013-08-17 08:56:00,
2013-08-17 04:01:00,52.7,49.5,30.18,SSW,203,0.0,0.0,89,0.00,,,0.00,WUHU216HW,2013-08-17 09:01:00,
2013-08-17 04:06:00,52.8,49.6,30.18,SSW,203,0.0,0.0,89,0.00,,,0.00,WUHU216HW,2013-08-17 09:06:00,
2013-08-17 04:11:00,52.8,49.6,30.18,SSW,203,0.0,0.0,89,0.00,,,0.00,WUHU216HW,2013-08-17 09:11:00,
2013-08-17 04:16:00,52.8,49.6,30.18,SSW,203,0.0,0.0,89,0.00,,,0.00,WUHU216HW,2013-08-17 09:16:00,
2013-08-17 04:21:00,52.8,49.6,30.19,SSW,203,0.0,0.0,89,0.00,,,0.00,WUHU216HW,2013-08-17 09:21:00,
2013-08-17 04:26:00,52.7,49.5,30.18,SSW,203,0.0,0.0,89,0.00,,,0.00,WUHU216HW,2013-08-17 09:26:00,
2013-08-17 04:31:00,52.8,49.6,30.19,SSW,203,0.0,0.0,89,0.00,,,0.00,WUHU216HW,2013-08-17 09:31:00,
2013-08-17 04:36:00,52.8,49.6,30.19,SSW,203,0.0,0.0,89,0.00,,,0.00,WUHU216HW,2013-08-17 09:36:00,
2013-08-17 04:41:00,52.8,49.6,30.19,SSW,203,0.0,0.0,89,0.00,,,0.00,WUHU216HW,2013-08-17 09:41:00,
2013-08-17 04:46:00,52.7,49.5,30.19,SSW,203,0.0,0.0,89,0.00,,,0.00,WUHU216HW,2013-08-17 09:46:00,
2013-08-17 04:51:00,52.8,49.6,30.19,SSW,203,0.0,0.0,89,0.00,,,0.00,WUHU216HW,2013-08-17 09:51:00,
2013-08-17 04:56:00,52.8,49.6,30.19,SSW,203,0.0,0.0,89,0.00,,,0.00,WUHU216HW,2013-08-17 09:56:00,
2013-08-17 05:01:00,52.7,49.5,30.19,SSW,203,0.0,0.0,89,0.00,,,0.00,WUHU216HW,2013-08-17 10:01:00,
2013-08-17 05:06:00,52.7,49.5,30.19,SSW,203,0.0,0.0,89,0.00,,,0.00,WUHU216HW,2013-08-17 10:06:00,
2013-08-17 05:11:00,52.7,49.5,30.19,SSW,203,0.0,0.0,89,0.00,,,0.00,WUHU216HW,2013-08-17 10:11:00,
2013-08-17 05:16:00,52.7,49.5,30.19,SSW,203,0.0,0.0,89,0.00,,,0.00,WUHU216HW,2013-08-17 10:16:00,
2013-08-17 05:21:00,52.8,49.6,30.19,SSW,203,0.0,0.0,89,0.00,,,0.00,WUHU216HW,2013-08-17 10:21:00,
2013-08-17 05:26:00,53.2,50.0,30.19,SSW,203,0.0,0.0,89,0.00,,,0.00,WUHU216HW,2013-08-17 10:26:00,
2013-08-17 05:31:00,52.8,49.6,30.19,SSW,203,0.0,0.0,89,0.00,,,0.00,WUHU216HW,2013-08-17 10:31:00,
2013-08-17 05:36:00,52.8,49.6,30.18,SSW,203,0.0,0.0,89,0.00,,,0.00,WUHU216HW,2013-08-17 10:36:00,
2013-08-17 05:41:00,52.8,49.6,30.19,South,180,0.0,0.0,89,0.00,,,0.00,WUHU216HW,2013-08-17 10:41:00,
2013-08-17 05:46:00,52.8,49.6,30.19,South,180,0.0,0.0,89,0.00,,,0.00,WUHU216HW,2013-08-17 10:46:00,
2013-08-17 05:51:00,53.2,50.0,30.19,SSE,158,0.0,0.0,89,0.00,,,0.00,WUHU216HW,2013-08-17 10:51:00,
2013-08-17 05:56:00,53.4,50.2,30.18,SSE,158,0.0,0.0,89,0.00,,,0.00,WUHU216HW,2013-08-17 10:56:00,
2013-08-17 06:01:00,53.4,50.2,30.19,SSE,158,0.0,0.0,89,0.00,,,0.00,WUHU216HW,2013-08-17 11:01:00,
2013-08-17 06:06:00,53.4,50.5,30.19,SSE,158,0.0,0.0,90,0.00,,,0.00,WUHU216HW,2013-08-17 11:06:00,
2013-08-17 06:11:00,53.7,50.9,30.19,SSE,158,0.0,0.0,90,0.00,,,0.00,WUHU216HW,2013-08-17 11:11:00,
2013-08-17 06:16:00,53.7,50.9,30.19,SSE,158,0.0,0.0,90,0.00,,,0.00,WUHU216HW,2013-08-17 11:16:00,
2013-08-17 06:21:00,53.7,50.9,30.19,SSE,158,0.0,0.0,90,0.00,,,0.00,WUHU216HW,2013-08-17 11:21:00,
2013-08-17 06:26:00,53.7,50.9,30.19,SE,135,0.0,0.0,90,0.00,,,0.00,WUHU216HW,2013-08-17 11:26:00,
2013-08-17 06:31:00,53.9,51.0,30.19,SSE,158,0.0,0.0,90,0.00,,,0.00,WUHU216HW,2013-08-17 11:31:00,
2013-08-17 06:36:00,53.9,51.0,30.19,SSE,158,0.0,0.0,90,0.00,,,0.00,WUHU216HW,2013-08-17 11:36:00,
2013-08-17 06:41:00,53.7,50.9,30.19,SSE,158,0.0,0.0,90,0.00,,,0.00,WUHU216HW,2013-08-17 11:41:00,
2013-08-17 06:46:00,54.1,51.2,30.19,South,180,0.0,0.0,90,0.00,,,0.00,WUHU216HW,2013-08-17 11:46:00,
2013-08-17 06:51:00,54.1,51.2,30.20,SSE,158,0.0,0.0,90,0.00,,,0.00,WUHU216HW,2013-08-17 11:51:00,
2013-08-17 06:56:00,54.3,51.4,30.20,South,180,0.0,0.0,90,0.00,,,0.00,WUHU216HW,2013-08-17 11:56:00,
2013-08-17 07:01:00,54.5,51.6,30.20,SSE,158,0.0,0.0,90,0.00,,,0.00,WUHU216HW,2013-08-17 12:01:00,
2013-08-17 07:06:00,54.6,51.8,30.20,SSE,158,0.0,0.0,90,0.00,,,0.00,WUHU216HW,2013-08-17 12:06:00,
2013-08-17 07:11:00,55.0,52.1,30.20,SSE,158,0.0,0.0,90,0.00,,,0.00,WUHU216HW,2013-08-17 12:11:00,
2013-08-17 07:16:00,55.2,52.3,30.20,SSE,158,0.0,0.0,90,0.00,,,0.00,WUHU216HW,2013-08-17 12:16:00,
2013-08-17 07:21:00,55.4,52.5,30.20,South,180,0.0,0.0,90,0.00,,,0.00,WUHU216HW,2013-08-17 12:21:00,
2013-08-17 07:26:00,55.9,53.3,30.20,SSE,158,0.0,0.0,91,0.00,,,0.00,WUHU216HW,2013-08-17 12:26:00,
2013-08-17 07:31:00,56.1,53.5,30.20,SSE,158,0.0,0.0,91,0.00,,,0.00,WUHU216HW,2013-08-17 12:31:00,
2013-08-17 07:36:00,56.4,53.8,30.20,South,180,0.0,0.0,91,0.00,,,0.00,WUHU216HW,2013-08-17 12:36:00,
2013-08-17 07:41:00,57.5,54.9,30.20,SSE,158,0.0,0.0,91,0.00,,,0.00,WUHU216HW,2013-08-17 12:41:00,
2013-08-17 07:46:00,58.2,55.9,30.20,SSE,158,0.0,0.0,92,0.00,,,0.00,WUHU216HW,2013-08-17 12:46:00,
2013-08-17 07:51:00,59.7,57.4,30.20,SSE,158,0.0,0.0,92,0.00,,,0.00,WUHU216HW,2013-08-17 12:51:00,
2013-08-17 07:56:00,62.4,60.4,30.20,SSE,158,0.0,0.0,93,0.00,,,0.00,WUHU216HW,2013-08-17 12:56:00,
2013-08-17 08:01:00,63.6,61.6,30.20,SSE,158,0.0,0.0,93,0.00,,,0.00,WUHU216HW,2013-08-17 13:01:00,
2013-08-17 08:05:00,65.1,63.0,30.20,SSE,158,0.0,0.0,93,0.00,,,0.00,WUHU216HW,2013-08-17 13:05:00,
2013-08-17 08:11:00,66.7,64.5,30.21,SSE,158,0.0,0.0,93,0.00,,,0.00,WUHU216HW,2013-08-17 13:11:00,
2013-08-17 08:15:00,67.2,65.1,30.20,SSE,158,0.0,0.0,93,0.00,,,0.00,WUHU216HW,2013-08-17 13:15:00,
2013-08-17 08:20:00,68.1,66.0,30.20,SSE,158,0.0,0.0,93,0.00,,,0.00,WUHU216HW,2013-08-17 13:20:00,
2013-08-17 08:25:00,69.4,66.6,30.20,SSE,158,0.0,0.0,91,0.00,,,0.00,WUHU216HW,2013-08-17 13:25:00,
2013-08-17 08:30:00,70.1,66.7,30.20,South,180,0.0,0.0,89,0.00,,,0.00,WUHU216HW,2013-08-17 13:30:00,
2013-08-17 08:35:00,70.8,66.7,30.20,SSW,203,0.0,0.0,87,0.00,,,0.00,WUHU216HW,2013-08-17 13:35:00,
2013-08-17 08:40:00,71.4,65.9,30.20,SE,135,0.0,0.0,83,0.00,,,0.00,WUHU216HW,2013-08-17 13:40:00,
2013-08-17 08:45:00,72.1,65.6,30.19,South,180,0.0,0.0,80,0.00,,,0.00,WUHU216HW,2013-08-17 13:45:00,
2013-08-17 08:50:00,72.5,65.2,30.19,SE,135,0.0,0.0,78,0.00,,,0.00,WUHU216HW,2013-08-17 13:50:00,
2013-08-17 08:55:00,73.2,65.2,30.19,SE,135,0.0,0.0,76,0.00,,,0.00,WUHU216HW,2013-08-17 13:55:00,
2013-08-17 09:00:00,73.5,64.8,30.19,SSW,203,0.0,0.0,74,0.00,,,0.00,WUHU216HW,2013-08-17 14:00:00,
2013-08-17 09:05:00,73.9,65.1,30.19,South,180,0.0,0.0,74,0.00,,,0.00,WUHU216HW,2013-08-17 14:05:00,
2013-08-17 09:10:00,74.4,64.8,30.19,SSW,203,0.0,0.0,72,0.00,,,0.00,WUHU216HW,2013-08-17 14:10:00,
2013-08-17 09:15:00,74.6,64.6,30.20,SE,135,0.0,0.0,71,0.00,,,0.00,WUHU216HW,2013-08-17 14:15:00,
2013-08-17 09:20:00,74.8,63.9,30.20,SSW,203,0.0,0.0,69,0.00,,,0.00,WUHU216HW,2013-08-17 14:20:00,
2013-08-17 09:25:00,75.0,64.1,30.19,South,180,0.0,0.0,69,0.00,,,0.00,WUHU216HW,2013-08-17 14:25:00,
2013-08-17 09:30:00,75.3,63.6,30.20,SSW,203,0.0,0.0,67,0.00,,,0.00,WUHU216HW,2013-08-17 14:30:00,
2013-08-17 09:35:00,75.3,63.6,30.20,SSW,203,0.0,0.0,67,0.00,,,0.00,WUHU216HW,2013-08-17 14:35:00,
2013-08-17 09:40:00,75.7,63.5,30.20,SE,135,0.0,0.0,66,0.00,,,0.00,WUHU216HW,2013-08-17 14:40:00,
2013-08-17 09:45:00,75.9,63.2,30.20,SSW,203,0.0,0.0,65,0.00,,,0.00,WUHU216HW,2013-08-17 14:45:00,
2013-08-17 09:50:00,76.1,63.4,30.20,SW,225,0.0,0.0,65,0.00,,,0.00,WUHU216HW,2013-08-17 14:50:00,
2013-08-17 09:55:00,76.6,63.0,30.20,SSE,158,0.0,0.0,63,0.00,,,0.00,WUHU216HW,2013-08-17 14:55:00,
2013-08-17 10:00:00,76.8,63.2,30.19,SSW,203,0.0,0.0,63,0.00,,,0.00,WUHU216HW,2013-08-17 15:00:00,
2013-08-17 10:05:00,77.0,63.4,30.19,South,180,0.0,0.0,63,0.00,,,0.00,WUHU216HW,2013-08-17 15:05:00,
2013-08-17 10:10:00,77.5,63.4,30.20,South,180,0.0,0.0,62,0.00,,,0.00,WUHU216HW,2013-08-17 15:10:00,
2013-08-17 10:15:00,77.5,63.0,30.19,South,180,0.0,0.0,61,0.00,,,0.00,WUHU216HW,2013-08-17 15:15:00,
2013-08-17 10:20:00,77.5,62.6,30.20,SSE,158,0.0,0.0,60,0.00,,,0.00,WUHU216HW,2013-08-17 15:20:00,
2013-08-17 10:25:00,77.5,62.6,30.20,South,180,0.0,0.0,60,0.00,,,0.00,WUHU216HW,2013-08-17 15:25:00,
2013-08-17 10:30:00,77.7,62.2,30.20,SSE,158,0.0,0.0,59,0.00,,,0.00,WUHU216HW,2013-08-17 15:30:00,
2013-08-17 10:35:00,77.9,62.9,30.20,South,180,0.0,0.0,60,0.00,,,0.00,WUHU216HW,2013-08-17 15:35:00,
2013-08-17 10:40:00,78.4,62.9,30.20,SSE,158,0.0,0.0,59,0.00,,,0.00,WUHU216HW,2013-08-17 15:40:00,
2013-08-17 10:45:00,78.6,62.6,30.20,SSE,158,0.0,0.0,58,0.00,,,0.00,WUHU216HW,2013-08-17 15:45:00,
2013-08-17 10:50:00,78.6,62.1,30.20,South,180,0.0,0.0,57,0.00,,,0.00,WUHU216HW,2013-08-17 15:50:00,
2013-08-17 10:55:00,78.6,62.1,30.20,SSE,158,0.0,0.0,57,0.00,,,0.00,WUHU216HW,2013-08-17 15:55:00,
2013-08-17 11:00:00,78.4,62.4,30.20,SSE,158,0.0,0.0,58,0.00,,,0.00,WUHU216HW,2013-08-17 16:00:00,
2013-08-17 11:05:00,78.6,62.1,30.20,SE,135,0.0,0.0,57,0.00,,,0.00,WUHU216HW,2013-08-17 16:05:00,
2013-08-17 11:10:00,78.6,62.1,30.20,SSE,158,0.0,0.0,57,0.00,,,0.00,WUHU216HW,2013-08-17 16:10:00,
2013-08-17 11:15:00,78.9,61.9,30.20,South,180,0.0,0.0,56,0.00,,,0.00,WUHU216HW,2013-08-17 16:15:00,
2013-08-17 11:20:00,79.3,62.7,30.20,SSE,158,0.0,0.0,57,0.00,,,0.00,WUHU216HW,2013-08-17 16:20:00,
2013-08-17 11:25:00,79.5,61.8,30.20,SSW,203,0.0,0.0,55,0.00,,,0.00,WUHU216HW,2013-08-17 16:25:00,
2013-08-17 11:30:00,79.8,62.2,30.19,South,180,0.0,0.0,55,0.00,,,0.00,WUHU216HW,2013-08-17 16:30:00,
2013-08-17 11:35:00,80.2,62.5,30.19,SSE,158,0.0,0.0,55,0.00,,,0.00,WUHU216HW,2013-08-17 16:35:00,
2013-08-17 11:40:00,80.4,61.6,30.19,South,180,0.0,0.0,53,0.00,,,0.00,WUHU216HW,2013-08-17 16:40:00,
2013-08-17 11:45:00,80.2,60.9,30.19,SSE,158,0.0,0.0,52,0.00,,,0.00,WUHU216HW,2013-08-17 16:45:00,
2013-08-17 11:50:00,79.8,60.6,30.19,SSE,158,0.0,0.0,52,0.00,,,0.00,WUHU216HW,2013-08-17 16:50:00,
2013-08-17 11:55:00,80.4,62.7,30.18,SSE,158,0.0,0.0,55,0.00,,,0.00,WUHU216HW,2013-08-17 16:55:00,
2013-08-17 12:00:00,81.1,63.3,30.18,SSW,203,0.0,0.0,55,0.00,,,0.00,WUHU216HW,2013-08-17 17:00:00,
2013-08-17 12:05:00,81.3,61.9,30.19,SW,225,0.0,0.0,52,0.00,,,0.00,WUHU216HW,2013-08-17 17:05:00,
2013-08-17 12:10:00,81.3,62.4,30.19,SSW,203,0.0,0.0,53,0.00,,,0.00,WUHU216HW,2013-08-17 17:10:00,
2013-08-17 12:15:00,81.3,61.4,30.19,South,180,0.0,0.0,51,0.00,,,0.00,WUHU216HW,2013-08-17 17:15:00,
2013-08-17 12:20:00,81.5,62.1,30.18,SE,135,0.0,0.0,52,0.00,,,0.00,WUHU216HW,2013-08-17 17:20:00,
2013-08-17 12:25:00,81.6,61.2,30.18,SE,135,0.0,0.0,50,0.00,,,0.00,WUHU216HW,2013-08-17 17:25:00,
2013-08-17 12:30:00,81.3,60.9,30.18,SSE,158,0.0,0.0,50,0.00,,,0.00,WUHU216HW,2013-08-17 17:30:00,
2013-08-17 12:35:00,80.9,60.5,30.18,SSE,158,0.0,0.0,50,0.00,,,0.00,WUHU216HW,2013-08-17 17:35:00,
2013-08-17 12:40:00,81.8,61.9,30.18,SSW,203,0.0,0.0,51,0.00,,,0.00,WUHU216HW,2013-08-17 17:40:00,
2013-08-17 12:45:00,82.2,62.2,30.18,SSW,203,0.0,0.0,51,0.00,,,0.00,WUHU216HW,2013-08-17 17:45:00,
2013-08-17 12:50:00,82.2,61.7,30.18,SW,225,0.0,0.0,50,0.00,,,0.00,WUHU216HW,2013-08-17 17:50:00,
2013-08-17 12:55:00,81.3,60.9,30.18,SSW,203,0.0,0.0,50,0.00,,,0.00,WUHU216HW,2013-08-17 17:55:00,
2013-08-17 13:00:00,81.5,60.4,30.18,South,180,0.0,0.0,49,0.00,,,0.00,WUHU216HW,2013-08-17 18:00:00,
2013-08-17 13:05:00,80.9,60.5,30.17,SSW,203,0.0,0.0,50,0.00,,,0.00,WUHU216HW,2013-08-17 18:05:00,
2013-08-17 13:10:00,81.3,60.9,30.17,South,180,0.0,0.0,50,0.00,,,0.00,WUHU216HW,2013-08-17 18:10:00,
2013-08-17 13:15:00,81.3,60.9,30.18,SSW,203,0.0,0.0,50,0.00,,,0.00,WUHU216HW,2013-08-17 18:15:00,
2013-08-17 13:20:00,81.3,60.9,30.18,South,180,0.0,0.0,50,0.00,,,0.00,WUHU216HW,2013-08-17 18:20:00,
2013-08-17 13:25:00,81.6,60.6,30.18,SSW,203,0.0,0.0,49,0.00,,,0.00,WUHU216HW,2013-08-17 18:25:00,
2013-08-17 13:30:00,81.6,60.0,30.17,SSE,158,0.0,0.0,48,0.00,,,0.00,WUHU216HW,2013-08-17 18:30:00,
2013-08-17 13:35:00,81.6,60.6,30.17,SSW,203,0.0,0.0,49,0.00,,,0.00,WUHU216HW,2013-08-17 18:35:00,
2013-08-17 13:40:00,82.2,60.4,30.17,SSW,203,0.0,0.0,48,0.00,,,0.00,WUHU216HW,2013-08-17 18:40:00,
2013-08-17 13:45:00,82.2,59.8,30.17,SSW,203,0.0,0.0,47,0.00,,,0.00,WUHU216HW,2013-08-17 18:45:00,
2013-08-17 13:50:00,82.2,60.4,30.17,South,180,0.0,0.0,48,0.00,,,0.00,WUHU216HW,2013-08-17 18:50:00,
2013-08-17 13:55:00,81.8,60.1,30.16,SSE,158,0.0,0.0,48,0.00,,,0.00,WUHU216HW,2013-08-17 18:55:00,
2013-08-17 14:00:00,82.0,60.3,30.16,SSE,158,0.0,0.0,48,0.00,,,0.00,WUHU216HW,2013-08-17 19:00:00,
2013-08-17 14:05:00,82.2,60.4,30.16,SSW,203,0.0,0.0,48,0.00,,,0.00,WUHU216HW,2013-08-17 19:05:00,
2013-08-17 14:10:00,82.2,60.4,30.16,SSW,203,0.0,0.0,48,0.00,,,0.00,WUHU216HW,2013-08-17 19:10:00,
2013-08-17 14:15:00,82.5,60.2,30.16,SW,225,0.0,0.0,47,0.00,,,0.00,WUHU216HW,2013-08-17 19:15:00,
2013-08-17 14:20:00,82.4,60.0,30.16,SSW,203,0.0,0.0,47,0.00,,,0.00,WUHU216HW,2013-08-17 19:20:00,
2013-08-17 14:25:00,82.7,60.3,30.16,SSW,203,0.0,0.0,47,0.00,,,0.00,WUHU216HW,2013-08-17 19:25:00,
2013-08-17 14:30:00,82.9,61.1,30.15,South,180,0.0,0.0,48,0.00,,,0.00,WUHU216HW,2013-08-17 19:30:00,
2013-08-17 14:35:00,82.9,60.5,30.15,South,180,0.0,0.0,47,0.00,,,0.00,WUHU216HW,2013-08-17 19:35:00,
2013-08-17 14:40:00,82.9,59.9,30.15,SSE,158,0.0,0.0,46,0.00,,,0.00,WUHU216HW,2013-08-17 19:40:00,
2013-08-17 14:45:00,82.5,60.2,30.15,SE,135,0.0,0.0,47,0.00,,,0.00,WUHU216HW,2013-08-17 19:45:00,
2013-08-17 14:50:00,82.5,59.5,30.15,WSW,248,0.0,0.0,46,0.00,,,0.00,WUHU216HW,2013-08-17 19:50:00,
2013-08-17 14:55:00,82.5,60.2,30.15,SSW,203,0.0,0.0,47,0.00,,,0.00,WUHU216HW,2013-08-17 19:55:00,
2013-08-17 15:00:00,82.4,59.4,30.15,SSW,203,0.0,0.0,46,0.00,,,0.00,WUHU216HW,2013-08-17 20:00:00,
2013-08-17 15:05:00,82.2,59.2,30.15,SSE,158,0.0,0.0,46,0.00,,,0.00,WUHU216HW,2013-08-17 20:05:00,
2013-08-17 15:10:00,82.7,59.7,30.14,SE,135,0.0,0.0,46,0.00,,,0.00,WUHU216HW,2013-08-17 20:10:00,
2013-08-17 15:15:00,82.7,59.7,30.14,SSE,158,0.0,0.0,46,0.00,,,0.00,WUHU216HW,2013-08-17 20:15:00,
2013-08-17 15:20:00,82.5,58.9,30.14,SE,135,0.0,0.0,45,0.00,,,0.00,WUHU216HW,2013-08-17 20:20:00,
2013-08-17 15:25:00,82.7,59.7,30.15,South,180,0.0,0.0,46,0.00,,,0.00,WUHU216HW,2013-08-17 20:25:00,
2013-08-17 15:30:00,82.9,59.9,30.15,South,180,0.0,0.0,46,0.00,,,0.00,WUHU216HW,2013-08-17 20:30:00,
2013-08-17 15:35:00,83.1,60.1,30.15,South,180,0.0,0.0,46,0.00,,,0.00,WUHU216HW,2013-08-17 20:35:00,
2013-08-17 15:40:00,82.0,58.4,30.15,SE,135,0.0,0.0,45,0.00,,,0.00,WUHU216HW,2013-08-17 20:40:00,
2013-08-17 15:45:00,81.6,58.1,30.14,SSE,158,0.0,0.0,45,0.00,,,0.00,WUHU216HW,2013-08-17 20:45:00,
2013-08-17 15:50:00,81.5,59.2,30.14,South,180,0.0,0.0,47,0.00,,,0.00,WUHU216HW,2013-08-17 20:50:00,
2013-08-17 15:55:00,82.0,59.7,30.14,SSE,158,0.0,0.0,47,0.00,,,0.00,WUHU216HW,2013-08-17 20:55:00,
2013-08-17 16:00:00,82.2,59.2,30.14,SSE,158,0.0,0.0,46,0.00,,,0.00,WUHU216HW,2013-08-17 21:00:00,
2013-08-17 16:05:00,82.2,59.2,30.14,SSE,158,0.0,0.0,46,0.00,,,0.00,WUHU216HW,2013-08-17 21:05:00,
2013-08-17 16:10:00,82.2,59.8,30.14,SSE,158,0.0,0.0,47,0.00,,,0.00,WUHU216HW,2013-08-17 21:10:00,
2013-08-17 16:15:00,82.5,59.5,30.14,SSE,158,0.0,0.0,46,0.00,,,0.00,WUHU216HW,2013-08-17 21:15:00,
2013-08-17 16:20:00,83.1,60.1,30.14,SE,135,0.0,0.0,46,0.00,,,0.00,WUHU216HW,2013-08-17 21:20:00,
2013-08-17 16:25:00,83.4,61.0,30.14,SSW,203,0.0,0.0,47,0.00,,,0.00,WUHU216HW,2013-08-17 21:25:00,
2013-08-17 16:30:00,83.8,60.8,30.14,SSE,158,0.0,0.0,46,0.00,,,0.00,WUHU216HW,2013-08-17 21:30:00,
2013-08-17 16:35:00,83.8,60.8,30.14,SSW,203,0.0,0.0,45,0.00,,,0.00,WUHU216HW,2013-08-17 21:35:00,
2013-08-17 16:40:00,84.0,60.3,30.14,South,180,0.0,0.0,45,0.00,,,0.00,WUHU216HW,2013-08-17 21:40:00,
2013-08-17 16:45:00,83.8,59.5,30.14,SSW,203,0.0,0.0,44,0.00,,,0.00,WUHU216HW,2013-08-17 21:45:00,
2013-08-17 16:50:00,84.0,59.7,30.14,SSE,158,0.0,0.0,44,0.00,,,0.00,WUHU216HW,2013-08-17 21:50:00,
2013-08-17 16:55:00,83.1,58.8,30.14,SSE,158,0.0,0.0,44,0.00,,,0.00,WUHU216HW,2013-08-17 21:55:00,
2013-08-17 17:00:00,82.9,59.3,30.13,South,180,0.0,0.0,45,0.00,,,0.00,WUHU216HW,2013-08-17 22:00:00,
2013-08-17 17:05:00,82.9,59.3,30.14,SSW,203,0.0,0.0,45,0.00,,,0.00,WUHU216HW,2013-08-17 22:05:00,
2013-08-17 17:10:00,83.1,60.1,30.14,SW,225,0.0,0.0,46,0.00,,,0.00,WUHU216HW,2013-08-17 22:10:00,
2013-08-17 17:15:00,83.4,59.8,30.14,SSE,158,0.0,0.0,45,0.00,,,0.00,WUHU216HW,2013-08-17 22:15:00,
2013-08-17 17:20:00,83.3,59.6,30.13,SSW,203,0.0,0.0,45,0.00,,,0.00,WUHU216HW,2013-08-17 22:20:00,
2013-08-17 17:25:00,83.1,59.5,30.14,SSW,203,0.0,0.0,45,0.00,,,0.00,WUHU216HW,2013-08-17 22:25:00,
2013-08-17 17:30:00,82.9,59.9,30.13,SSW,203,0.0,0.0,46,0.00,,,0.00,WUHU216HW,2013-08-17 22:30:00,
2013-08-17 17:35:00,82.7,59.1,30.13,SSW,203,0.0,0.0,45,0.00,,,0.00,WUHU216HW,2013-08-17 22:35:00,
2013-08-17 17:40:00,82.5,59.5,30.13,SW,225,0.0,0.0,46,0.00,,,0.00,WUHU216HW,2013-08-17 22:40:00,
2013-08-17 17:45:00,82.5,59.5,30.13,SW,225,0.0,0.0,46,0.00,,,0.00,WUHU216HW,2013-08-17 22:45:00,
2013-08-17 17:50:00,82.2,59.8,30.13,SSW,203,0.0,0.0,47,0.00,,,0.00,WUHU216HW,2013-08-17 22:50:00,
2013-08-17 17:55:00,82.2,59.8,30.13,South,180,0.0,0.0,47,0.00,,,0.00,WUHU216HW,2013-08-17 22:55:00,
2013-08-17 18:00:00,81.8,58.9,30.13,South,180,0.0,0.0,46,0.00,,,0.00,WUHU216HW,2013-08-17 23:00:00,
2013-08-17 18:05:00,81.1,58.2,30.13,SSE,158,0.0,0.0,46,0.00,,,0.00,WUHU216HW,2013-08-17 23:05:00,
2013-08-17 18:10:00,80.7,57.9,30.13,South,180,0.0,0.0,46,0.00,,,0.00,WUHU216HW,2013-08-17 23:10:00,
2013-08-17 18:15:00,80.2,58.1,30.12,SSE,158,0.0,0.0,47,0.00,,,0.00,WUHU216HW,2013-08-17 23:15:00,
2013-08-17 18:20:00,79.7,58.2,30.12,SSE,158,0.0,0.0,48,0.00,,,0.00,WUHU216HW,2013-08-17 23:20:00,
2013-08-17 18:25:00,78.9,57.5,30.12,South,180,0.0,0.0,48,0.00,,,0.00,WUHU216HW,2013-08-17 23:25:00,
2013-08-17 18:30:00,78.6,57.8,30.12,SSE,158,0.0,0.0,49,0.00,,,0.00,WUHU216HW,2013-08-17 23:30:00,
2013-08-17 18:35:00,78.4,57.7,30.12,South,180,0.0,0.0,49,0.00,,,0.00,WUHU216HW,2013-08-17 23:35:00,
2013-08-17 18:40:00,78.0,57.9,30.12,SSW,203,0.0,0.0,50,0.00,,,0.00,WUHU216HW,2013-08-17 23:40:00,
2013-08-17 18:45:00,77.9,58.3,30.11,South,180,0.0,0.0,51,0.00,,,0.00,WUHU216HW,2013-08-17 23:45:00,
2013-08-17 18:50:00,77.7,58.1,30.11,South,180,0.0,0.0,51,0.00,,,0.00,WUHU216HW,2013-08-17 23:50:00,
2013-08-17 18:55:00,77.5,58.0,30.11,SSW,203,0.0,0.0,51,0.00,,,0.00,WUHU216HW,2013-08-17 23:55:00,
2013-08-17 19:00:00,77.1,58.1,30.11,South,180,0.0,0.0,52,0.00,,,0.00,WUHU216HW,2013-08-18 00:00:00,
2013-08-17 19:05:00,76.8,57.8,30.11,South,180,0.0,0.0,52,0.00,,,0.00,WUHU216HW,2013-08-18 00:05:00,
2013-08-17 19:10:00,76.2,57.3,30.11,SSW,203,0.0,0.0,52,0.00,,,0.00,WUHU216HW,2013-08-18 00:10:00,
2013-08-17 19:15:00,75.9,57.5,30.11,SSW,203,0.0,0.0,53,0.00,,,0.00,WUHU216HW,2013-08-18 00:15:00,
2013-08-17 19:20:00,75.7,57.3,30.11,SSE,158,0.0,0.0,53,0.00,,,0.00,WUHU216HW,2013-08-18 00:20:00,
2013-08-17 19:25:00,75.5,57.2,30.11,SSW,203,0.0,0.0,53,0.00,,,0.00,WUHU216HW,2013-08-18 00:25:00,
2013-08-17 19:30:00,77.7,59.1,30.11,SSW,203,0.0,0.0,53,0.00,,,0.00,WUHU216HW,2013-08-18 00:30:00,
2013-08-17 19:35:00,78.6,59.5,30.11,SSW,203,0.0,0.0,52,0.00,,,0.00,WUHU216HW,2013-08-18 00:35:00,
2013-08-17 19:40:00,76.6,58.2,30.11,SSW,203,0.0,0.0,53,0.00,,,0.00,WUHU216HW,2013-08-18 00:40:00,
2013-08-17 19:45:00,74.8,57.0,30.11,SSW,203,0.0,0.0,54,0.00,,,0.00,WUHU216HW,2013-08-18 00:45:00,
2013-08-17 19:50:00,73.2,55.9,30.11,SSW,203,0.0,0.0,55,0.00,,,0.00,WUHU216HW,2013-08-18 00:50:00,
2013-08-17 19:55:00,71.4,55.3,30.11,SSW,203,0.0,0.0,57,0.00,,,0.00,WUHU216HW,2013-08-18 00:55:00,
2013-08-17 20:00:00,70.3,54.8,30.11,SSW,203,0.0,0.0,58,0.00,,,0.00,WUHU216HW,2013-08-18 01:00:00,
2013-08-17 20:05:00,69.4,54.5,30.11,SSW,203,0.0,0.0,59,0.00,,,0.00,WUHU216HW,2013-08-18 01:05:00,
2013-08-17 20:10:00,68.1,54.7,30.11,SSW,203,0.0,0.0,61,0.00,,,0.00,WUHU216HW,2013-08-18 01:10:00,
2013-08-17 20:15:00,67.6,54.1,30.11,SSW,203,0.0,0.0,62,0.00,,,0.00,WUHU216HW,2013-08-18 01:15:00,
2013-08-17 20:20:00,66.9,53.8,30.11,SSW,203,0.0,0.0,63,0.00,,,0.00,WUHU216HW,2013-08-18 01:20:00,
2013-08-17 20:25:00,65.8,53.7,30.11,SSW,203,0.0,0.0,65,0.00,,,0.00,WUHU216HW,2013-08-18 01:25:00,
2013-08-17 20:30:00,65.1,53.4,30.11,SSW,203,0.0,0.0,66,0.00,,,0.00,WUHU216HW,2013-08-18 01:30:00,
2013-08-17 20:35:00,64.5,53.3,30.12,SSW,203,0.0,0.0,67,0.00,,,0.00,WUHU216HW,2013-08-18 01:35:00,
2013-08-17 20:40:00,64.0,53.2,30.12,SSW,203,0.0,0.0,68,0.00,,,0.00,WUHU216HW,2013-08-18 01:40:00,
2013-08-17 20:45:00,63.5,53.1,30.12,SSW,203,0.0,0.0,69,0.00,,,0.00,WUHU216HW,2013-08-18 01:45:00,
2013-08-17 20:50:00,63.1,53.2,30.12,SSW,203,0.0,0.0,70,0.00,,,0.00,WUHU216HW,2013-08-18 01:50:00,
2013-08-17 20:55:00,62.4,52.5,30.12,SSW,203,0.0,0.0,70,0.00,,,0.00,WUHU216HW,2013-08-18 01:55:00,
2013-08-17 21:00:00,61.8,52.4,30.12,SSW,203,0.0,0.0,71,0.00,,,0.00,WUHU216HW,2013-08-18 02:00:00,
2013-08-17 21:05:00,61.7,52.6,30.12,SSW,203,0.0,0.0,72,0.00,,,0.00,WUHU216HW,2013-08-18 02:05:00,
2013-08-17 21:10:00,60.9,52.3,30.12,SSW,203,0.0,0.0,73,0.00,,,0.00,WUHU216HW,2013-08-18 02:10:00,
2013-08-17 21:15:00,60.6,51.9,30.13,SSW,203,0.0,0.0,73,0.00,,,0.00,WUHU216HW,2013-08-18 02:15:00,
2013-08-17 21:20:00,60.6,52.3,30.13,SSW,203,0.0,0.0,74,0.00,,,0.00,WUHU216HW,2013-08-18 02:20:00,
2013-08-17 21:25:00,60.0,52.5,30.13,SSW,203,0.0,0.0,76,0.00,,,0.00,WUHU216HW,2013-08-18 02:25:00,
2013-08-17 21:30:00,60.0,52.5,30.13,SSW,203,0.0,0.0,76,0.00,,,0.00,WUHU216HW,2013-08-18 02:30:00,
2013-08-17 21:35:00,59.9,52.3,30.13,SSW,203,0.0,0.0,76,0.00,,,0.00,WUHU216HW,2013-08-18 02:35:00,
2013-08-17 21:40:00,59.5,51.9,30.13,SSW,203,0.0,0.0,76,0.00,,,0.00,WUHU216HW,2013-08-18 02:40:00,
2013-08-17 21:45:00,59.0,51.8,30.13,SSW,203,0.0,0.0,77,0.00,,,0.00,WUHU216HW,2013-08-18 02:45:00,
2013-08-17 21:50:00,58.8,51.6,30.13,SSW,203,0.0,0.0,77,0.00,,,0.00,WUHU216HW,2013-08-18 02:50:00,
2013-08-17 21:55:00,58.8,51.6,30.13,SSW,203,0.0,0.0,77,0.00,,,0.00,WUHU216HW,2013-08-18 02:55:00,
2013-08-17 22:00:00,58.4,51.6,30.13,SSW,203,0.0,0.0,78,0.00,,,0.00,WUHU216HW,2013-08-18 03:00:00,
2013-08-17 22:05:00,58.2,51.4,30.13,SSW,203,0.0,0.0,78,0.00,,,0.00,WUHU216HW,2013-08-18 03:05:00,
2013-08-17 22:10:00,58.1,51.6,30.13,SSW,203,0.0,0.0,79,0.00,,,0.00,WUHU216HW,2013-08-18 03:10:00,
2013-08-17 22:15:00,58.1,51.9,30.13,SSW,203,0.0,0.0,80,0.00,,,0.00,WUHU216HW,2013-08-18 03:15:00,
2013-08-17 22:20:00,58.2,52.1,30.13,SSE,158,0.0,0.0,80,0.00,,,0.00,WUHU216HW,2013-08-18 03:20:00,
2013-08-17 22:25:00,58.6,52.8,30.13,SSE,158,0.0,0.0,81,0.00,,,0.00,WUHU216HW,2013-08-18 03:25:00,
2013-08-17 22:30:00,58.8,53.0,30.13,SSE,158,0.0,0.0,81,0.00,,,0.00,WUHU216HW,2013-08-18 03:30:00,
2013-08-17 22:35:00,58.8,53.0,30.12,SSE,158,0.0,0.0,81,0.00,,,0.00,WUHU216HW,2013-08-18 03:35:00,
2013-08-17 22:40:00,58.8,53.0,30.12,SSE,158,0.0,0.0,81,0.00,,,0.00,WUHU216HW,2013-08-18 03:40:00,
2013-08-17 22:45:00,58.8,53.3,30.12,SSE,158,0.0,0.0,82,0.00,,,0.00,WUHU216HW,2013-08-18 03:45:00,
2013-08-17 22:50:00,59.1,53.7,30.12,SSE,158,0.0,0.0,82,0.00,,,0.00,WUHU216HW,2013-08-18 03:50:00,
2013-08-17 22:55:00,59.7,54.2,30.12,SSE,158,0.0,0.0,82,0.00,,,0.00,WUHU216HW,2013-08-18 03:55:00,
2013-08-17 23:00:00,59.9,54.4,30.12,SSE,158,0.0,0.0,82,0.00,,,0.00,WUHU216HW,2013-08-18 04:00:00,
2013-08-17 23:01:00,59.9,54.4,30.12,SSE,158,0.0,0.0,82,0.00,,,0.00,WUHU216HW,2013-08-18 04:01:00,
2013-08-17 23:06:00,60.0,54.2,30.12,SSE,158,0.0,0.0,81,0.00,,,0.00,WUHU216HW,2013-08-18 04:06:00,
2013-08-17 23:11:00,60.0,54.2,30.12,SSE,158,0.0,0.0,81,0.00,,,0.00,WUHU216HW,2013-08-18 04:11:00,
2013-08-17 23:16:00,60.0,54.2,30.12,SSE,158,0.0,0.0,81,0.00,,,0.00,WUHU216HW,2013-08-18 04:16:00,
2013-08-17 23:21:00,60.0,54.2,30.12,SSE,158,0.0,0.0,81,0.00,,,0.00,WUHU216HW,2013-08-18 04:21:00,
2013-08-17 23:26:00,59.9,54.1,30.12,SE,135,0.0,0.0,81,0.00,,,0.00,WUHU216HW,2013-08-18 04:26:00,
2013-08-17 23:31:00,59.9,53.7,30.12,SSE,158,0.0,0.0,80,0.00,,,0.00,WUHU216HW,2013-08-18 04:31:00,
2013-08-17 23:36:00,59.7,53.6,30.12,SSE,158,0.0,0.0,80,0.00,,,0.00,WUHU216HW,2013-08-18 04:36:00,
2013-08-17 23:41:00,59.7,53.6,30.12,South,180,0.0,0.0,80,0.00,,,0.00,WUHU216HW,2013-08-18 04:41:00,
2013-08-17 23:46:00,59.7,53.6,30.12,South,180,0.0,0.0,80,0.00,,,0.00,WUHU216HW,2013-08-18 04:46:00,
2013-08-17 23:51:00,59.7,53.6,30.12,SSE,158,0.0,0.0,80,0.00,,,0.00,WUHU216HW,2013-08-18 04:51:00,
2013-08-17 23:56:00,59.7,53.9,30.12,SSE,158,0.0,0.0,81,0.00,,,0.00,WUHU216HW,2013-08-18 04:56:00,